Location: Lovettville
(53.0333°N, 116.6833°W)
Time: 04:26:51
(UTC+00:00)

ISS - Visible Passes

Search period start: 03 December 2023 00:00
Search period end: 13 December 2023 00:00
Orbit: 415 x 417 km, 51.6° (Epoch: 03 December)

Date Brightness Start Highest point End Pass type
(mag) Time Alt. Az. Time Alt. Az. Time Alt. Az.
03 Dec -3.1 00:11:18 10° W 00:14:37 57° SSW 00:17:55 10° ESE visible
03 Dec -1.4 01:48:18 10° W 01:50:56 21° SSW 01:53:05 12° SSE visible
04 Dec -1.8 00:59:39 10° W 01:02:36 29° SSW 01:05:33 10° SE visible
05 Dec -2.2 00:11:04 10° W 00:14:12 38° SSW 00:17:21 10° SE visible
05 Dec -0.5 01:49:12 10° WSW 01:50:15 11° SW 01:51:17 10° SSW visible
06 Dec -0.8 00:59:46 10° WSW 01:01:56 16° SW 01:04:05 10° S visible
07 Dec -1.0 00:10:50 10° W 00:13:31 22° SSW 00:16:11 10° SSE visible
09 Dec -0.2 00:11:12 10° WSW 00:12:31 12° SW 00:13:50 10° SSW visible
